Orlando, OK (73073)

10:07 PM CDT on May 06, 2015 (GMT -0500)
NE of town | | Change Station
CLOSE
Current Station
Personal Weather Station
Location: Guthrie, OK
Elevation: 1115 ft
Nearby Weather Stations
Active Advisory: Tornado Watch

Elev 1115 ft 35.91 °N, 97.35 °W | Updated 48 seconds ago

Clear
Clear
72.2 °F
Feels Like 72 °F
N
31.0
Wind Variable Wind from SE
Gusts 40.0 mph

Today
High -- | Low -- °F
--% Chance of Precip.
Yesterday
High -- | Low -- °F
Precip. -- in
6:31 AM 8:21 PM
Waning Gibbous, 91% visible
Pressure 29.77 in
Visibility 10.0 miles
Clouds Clear
Heat Index 72 °F
Dew Point 67 °F
Humidity 83%
Rainfall 0.85 in
Snow Depth Not available.
UV 0.0 out of 12
Pollen 3.50 out of 12
Air Quality Not available.
Flu Activity Local Activity
SPECI KGOK 070219Z AUTO 16016G38KT 10SM CLR 23/14 A2977 RMK AO2 PK WND 18038/0210 LTG DSNT E-SW T02280139

More Conditions Fewer Conditions

Pressure 29.77 in
Visibility 10.0 miles
Clouds Clear
Heat Index 72 °F
Dew Point 67 °F
Humidity 83%
Rainfall 0.85 in
Snow Depth Not available.
UV 0.0 out of 12
Pollen 3.50 out of 12
Air Quality Not available.
Flu Activity Local Activity
SPECI KGOK 070219Z AUTO 16016G38KT 10SM CLR 23/14 A2977 RMK AO2 PK WND 18038/0210 LTG DSNT E-SW T02280139

More Conditions Fewer Conditions

The Storm Prediction Center has issued an enhanced risk of severe weather for parts of central Texas, Oklahoma, Kansas, and southern Nebraska. Severe thunderstorms are developing throughout the area, producing tornadoes, heavy rain, and large hail. Tornadoes will be possible into the evening.

10-Day Weather Forecast

Almanac

Astronomy

May. 06, 2015 Rise Set
Actual Time
Civil Twilight
Nautical Twilight
Astronomical Twilight
Moon
Length of Visible Light
Length of Day
Tomorrow will be .
, % of the Moon is Illuminated

Today's Extremes

State Highs State Lows

Community

WunderPhotos

Upload Photos

1,819,097 photos uploaded!

WunderBlogs® & News

Nearby

Air Quality

  Air Quality AQ Index Pollutant
Not available.

Snow Depth

Station Depth Elevation

Earthquake Activity

City Distance Mag. Time & Date
Minimum magnitude displayed is 2.5.

Coastal Water Temperatures

Place Temperature

Stations

Nearby Weather Stations

Station Location Temp. Windchill Dew Point Humidity Wind Precip. Elev Updated Type
                   
Tornado Watch
Statement as of 10:03 PM CDT on May 06, 2015

Tornado Watch 137 remains in effect until 200 am CDT for the
following locations


OK
. Oklahoma counties included are

Alfalfa Blaine Caddo
Canadian Carter Cleveland
Comanche Cotton Custer
Dewey Garfield Garvin
Grady Grant Jackson
Jefferson Kay Kingfisher
Kiowa Lincoln Logan
Love McClain major
Murray Noble Oklahoma
Payne Pottawatomie Stephens
Tillman Washita